Location: Bangkok
(13.7500°N, 100.5170°E)
Time: 23:27:24
(UTC+07:00)

Hubble Space Telescope - Visible Passes

Search period start: 20 September 2017 00:00
Search period end: 30 September 2017 00:00
Orbit: 538 x 541 km, 28.5° (Epoch: 19 September)

Date Brightness Start Highest point End Pass type
(mag) Time Alt. Az. Time Alt. Az. Time Alt. Az.
26 Sep 3.6 04:01:15 13° SE 04:01:15 13° SE 04:02:27 10° ESE visible
26 Sep 0.9 05:37:17 10° WSW 05:41:25 76° SSE 05:45:33 10° ENE visible
27 Sep 3.6 03:52:10 14° ESE 03:52:10 14° ESE 03:53:09 10° ESE visible
27 Sep 0.7 05:27:34 13° WSW 05:31:17 77° NNW 05:35:25 10° ENE visible
28 Sep 3.9 03:43:02 12° E 03:43:02 12° E 03:43:31 10° E visible
28 Sep 1.0 05:18:25 19° W 05:21:10 56° NNW 05:25:14 10° NE visible
29 Sep 1.4 05:09:14 26° WNW 05:11:03 41° NNW 05:15:00 10° NE visible
